Daviess Cnty AP, Washington,, IN

2:02 AM EDT on July 20, 2019 (GMT -0400)
Daviess County

Weather History for KDCY - May, 2019

Change the Weather History Date:

Sunday, May 19, 2019

  Actual Average (WUND) Record (WUND)
Temperature  
Mean Temperature 70 °F -  
Max Temperature 78 °F - - (-1)
Min Temperature 63 °F - - (-1)
Cooling Degree Days 6    
Growing Degree Days 20 (Base 50)    
Moisture  
Dew Point 64 °F    
Average Humidity 81    
Maximum Humidity 100    
Minimum Humidity 63    
Precipitation  
Precipitation 0.28 in - - ()
Sea Level Pressure  
Sea Level Pressure 29.80 in    
Wind  
Wind Speed 11 mph (SSW)    
Max Wind Speed 22 mph    
Max Gust Speed 29 mph    
Visibility 10 miles    
Events Rain    
Averages and records for this station are not official NWS values.
T = Trace of Precipitation, MM = Missing Value Source: NWS Daily Summary

Daily Weather History Graph

Daily Weather History Graph

Search for Another Location

Airport or City:

Astronomy

May. 19, 2019 Rise Set
Actual Time 6:33 AM EDT 8:57 PM EDT
Civil Twilight 6:03 AM EDT 9:27 PM EDT
Nautical Twilight 5:25 AM EDT 10:04 PM EDT
Astronomical Twilight 4:44 AM EDT 10:46 PM EDT
Moon 9:57 PM EDT (5/19) 7:18 AM EDT (5/19)
Length of Visible Light 15h 24m
Length of Day
14h 23m
Full, 99% of the Moon is Illuminated
May 19
Full
May 26
Last Quarter
Jun 3
New
Jun 10
First Quarter
Jun 17
Full

Hourly Weather History & Observations

Time (EDT) Temp. Dew Point Humidity Pressure Visibility Wind Dir Wind Speed Gust Speed Precip Events Conditions
12:15 AM 72.0 °F 60.4 °F 67% 29.81 in 10.0 mi South 8.1 mph - N/A   Clear
12:35 AM 71.2 °F 60.6 °F 69% 29.81 in 10.0 mi South 8.1 mph - N/A   Clear
12:55 AM 71.2 °F 61.0 °F 70% 29.80 in 10.0 mi South 10.4 mph - N/A   Clear
1:15 AM 71.4 °F 61.3 °F 70% 29.80 in 10.0 mi South 9.2 mph - N/A   Clear
1:35 AM 71.2 °F 61.2 °F 70% 29.80 in 10.0 mi South 9.2 mph - N/A   Clear
1:55 AM 71.2 °F 61.7 °F 72% 29.80 in 10.0 mi South 9.2 mph - N/A   Scattered Clouds
2:15 AM 71.8 °F 61.7 °F 70% 29.79 in 10.0 mi South 9.2 mph - N/A   Scattered Clouds
2:35 AM 72.1 °F 61.3 °F 69% 29.79 in 10.0 mi South 10.4 mph - N/A   Scattered Clouds
2:55 AM 72.5 °F 61.2 °F 67% 29.79 in 10.0 mi South 11.5 mph - N/A   Clear
3:15 AM 72.1 °F 60.8 °F 67% 29.78 in 10.0 mi South 10.4 mph - N/A   Clear
3:35 AM 71.8 °F 60.6 °F 68% 29.78 in 10.0 mi South 10.4 mph - N/A   Clear
3:55 AM 72.9 °F 60.3 °F 65% 29.79 in 10.0 mi South 11.5 mph - N/A   Scattered Clouds
4:15 AM 73.4 °F 60.1 °F 63% 29.78 in 10.0 mi SSW 12.7 mph 18.4 mph N/A   Scattered Clouds
4:35 AM 72.7 °F 60.4 °F 65% 29.78 in 10.0 mi South 5.8 mph - N/A   Mostly Cloudy
4:55 AM 71.4 °F 61.5 °F 71% 29.77 in 10.0 mi South 9.2 mph - N/A Rain Light Rain
5:15 AM 70.3 °F 62.1 °F 75% 29.76 in 10.0 mi South 9.2 mph 18.4 mph N/A   Mostly Cloudy
5:35 AM 68.9 °F 62.4 °F 80% 29.77 in 10.0 mi South 8.1 mph - N/A   Clear
5:55 AM 68.9 °F 62.1 °F 79% 29.75 in 10.0 mi South 6.9 mph - N/A   Clear
6:15 AM 68.9 °F 62.2 °F 79% 29.75 in 10.0 mi South 12.7 mph - N/A   Clear
6:35 AM 69.8 °F 62.6 °F 78% 29.76 in 10.0 mi South 11.5 mph - N/A   Scattered Clouds
6:55 AM 71.1 °F 62.2 °F 74% 29.77 in 10.0 mi South 19.6 mph 25.3 mph N/A   Overcast
7:15 AM 71.1 °F 62.6 °F 75% 29.76 in 10.0 mi SSW 19.6 mph 24.2 mph N/A   Overcast
7:35 AM 70.7 °F 63.0 °F 76% 29.76 in 10.0 mi South 17.3 mph 26.5 mph N/A   Overcast
7:55 AM 70.9 °F 63.0 °F 76% 29.77 in 10.0 mi SSW 13.8 mph 21.9 mph N/A   Overcast
8:15 AM 70.9 °F 63.1 °F 76% 29.78 in 10.0 mi SSW 13.8 mph - N/A   Overcast
8:35 AM 71.2 °F 63.0 °F 75% 29.79 in 10.0 mi SSW 15.0 mph 24.2 mph N/A   Overcast
8:55 AM 70.9 °F 63.0 °F 76% 29.80 in 10.0 mi SSW 17.3 mph 21.9 mph N/A   Light Drizzle
9:15 AM 71.2 °F 63.5 °F 76% 29.80 in 10.0 mi SSW 15.0 mph 19.6 mph N/A   Overcast
9:35 AM 71.6 °F 63.5 °F 76% 29.81 in 10.0 mi SSW 12.7 mph - N/A   Overcast
9:55 AM 71.8 °F 63.5 °F 75% 29.81 in 10.0 mi SSW 11.5 mph 20.7 mph N/A   Overcast
10:15 AM 71.4 °F 64.0 °F 77% 29.81 in 10.0 mi SW 13.8 mph 19.6 mph N/A   Light Drizzle
10:35 AM 70.7 °F 64.0 °F 79% 29.82 in 10.0 mi SW 16.1 mph 21.9 mph N/A Rain Rain
10:55 AM 68.9 °F 64.2 °F 85% 29.82 in 10.0 mi WSW 13.8 mph 25.3 mph N/A Rain Rain
11:15 AM 68.4 °F 63.0 °F 83% 29.80 in 10.0 mi SW 11.5 mph 21.9 mph N/A   Light Drizzle
11:35 AM 67.6 °F 63.1 °F 85% 29.82 in 5.0 mi SW 13.8 mph 25.3 mph N/A Rain Heavy Rain
11:55 AM 67.1 °F 64.9 °F 93% 29.80 in 10.0 mi SW 9.2 mph - N/A   Overcast
12:15 PM 66.6 °F 64.2 °F 92% 29.82 in 10.0 mi SW 12.7 mph - N/A Rain Rain
12:35 PM 65.5 °F 65.3 °F 99% 29.82 in 2.5 mi SW 10.4 mph - 0.09 in Rain Heavy Rain
12:55 PM 65.3 °F 65.3 °F 100% 29.81 in 4.0 mi SSW 6.9 mph - 0.12 in Rain Light Rain
1:15 PM 65.7 °F 65.5 °F 99% 29.79 in 5.0 mi South 15.0 mph 21.9 mph 0.02 in   Drizzle
1:35 PM 67.3 °F 65.8 °F 95% 29.79 in 10.0 mi SSW 12.7 mph - 0.02 in   Overcast
1:55 PM 70.0 °F 66.6 °F 89% 29.79 in 10.0 mi SSW 13.8 mph 18.4 mph 0.02 in   Mostly Cloudy
2:15 PM 71.6 °F 65.5 °F 81% 29.78 in 10.0 mi SSW 13.8 mph 23.0 mph N/A   Scattered Clouds
2:35 PM 73.4 °F 66.4 °F 79% 29.79 in 10.0 mi SSW 15.0 mph 20.7 mph N/A   Scattered Clouds
2:55 PM 71.6 °F 65.3 °F 80% 29.79 in 10.0 mi SW 11.5 mph 18.4 mph N/A   Mostly Cloudy
3:15 PM 71.8 °F 65.8 °F 81% 29.79 in 10.0 mi SSW 11.5 mph - N/A   Overcast
3:35 PM 73.6 °F 66.4 °F 78% 29.79 in 10.0 mi South 16.1 mph 21.9 mph N/A   Overcast
3:55 PM 75.2 °F 67.1 °F 76% 29.78 in 10.0 mi SSW 17.3 mph - N/A   Overcast
4:15 PM 74.3 °F 67.1 °F 78% 29.78 in 10.0 mi SSW 9.2 mph - N/A   Overcast
4:35 PM 77.0 °F 67.5 °F 72% 29.77 in 10.0 mi SSW 16.1 mph - N/A   Overcast
4:55 PM 77.2 °F 66.9 °F 71% 29.77 in 10.0 mi SW 21.9 mph 27.6 mph N/A   Scattered Clouds
5:15 PM 77.0 °F 65.8 °F 68% 29.76 in 10.0 mi SW 15.0 mph 25.3 mph N/A   Scattered Clouds
5:35 PM 78.3 °F 66.0 °F 66% 29.76 in 10.0 mi SW 18.4 mph 26.5 mph N/A   Scattered Clouds
5:55 PM 77.9 °F 64.8 °F 64% 29.76 in 10.0 mi SW 16.1 mph 27.6 mph N/A   Scattered Clouds
6:15 PM 77.4 °F 64.2 °F 64% 29.77 in 10.0 mi SW 15.0 mph 24.2 mph N/A   Mostly Cloudy
6:35 PM 77.0 °F 64.2 °F 65% 29.77 in 10.0 mi SSW 16.1 mph 21.9 mph N/A   Mostly Cloudy
6:55 PM 72.0 °F 60.1 °F 66% 29.80 in 10.0 mi West 19.6 mph 28.8 mph N/A   Overcast
7:15 PM 64.8 °F 64.6 °F 99% 29.80 in 5.0 mi West 6.9 mph - 0.05 in Rain Heavy Rain
7:35 PM 65.5 °F 65.1 °F 99% 29.79 in 10.0 mi WSW 4.6 mph - 0.08 in   Overcast
7:55 PM 65.8 °F 64.9 °F 97% 29.81 in 5.0 mi West 12.7 mph 19.6 mph 0.10 in Rain Rain
8:15 PM 65.5 °F 65.3 °F 99% 29.81 in 10.0 mi SW 6.9 mph - 0.03 in Rain Rain
8:35 PM 65.7 °F 65.3 °F 99% 29.82 in 10.0 mi SSW 8.1 mph - 0.04 in Rain Light Rain
8:55 PM 66.2 °F 65.1 °F 96% 29.83 in 10.0 mi SW 6.9 mph - 0.04 in   Overcast
9:15 PM 65.8 °F 65.5 °F 99% 29.84 in 10.0 mi SW 6.9 mph - N/A   Overcast
9:35 PM 65.8 °F 64.8 °F 96% 29.85 in 10.0 mi SW 6.9 mph - N/A   Scattered Clouds
9:55 PM 64.8 °F 64.4 °F 99% 29.85 in 10.0 mi SW 5.8 mph - N/A   Clear
10:15 PM 64.4 °F 63.9 °F 98% 29.86 in 10.0 mi SW 4.6 mph - N/A   Clear
10:35 PM 63.9 °F 63.7 °F 99% 29.87 in 10.0 mi SW 5.8 mph - N/A   Clear
10:55 PM 63.1 °F 63.0 °F 99% 29.88 in 10.0 mi WSW 3.5 mph - N/A   Clear
11:15 PM 63.5 °F 63.1 °F 99% 29.88 in 10.0 mi WSW 5.8 mph - N/A   Clear
11:35 PM 63.9 °F 60.8 °F 90% 29.89 in 10.0 mi WSW 5.8 mph - N/A   Clear
11:55 PM 63.0 °F 61.3 °F 94% 29.89 in 10.0 mi SW 5.8 mph - N/A   Clear